TimeCDT,TemperatureF,Dew PointF,Humidity,Sea Level PressureIn,VisibilityMPH,Wind Direction,Wind SpeedMPH,Gust SpeedMPH,PrecipitationIn,Events,Conditions,WindDirDegrees,DateUTC
12:58 AM,77.9,68.5,73,29.77,10.0,SSE,10.4,-,N/A,,Clear,160,2013-05-16 05:58:00
1:58 AM,75.9,68.5,78,29.75,10.0,SE,9.2,-,N/A,,Clear,140,2013-05-16 06:58:00
2:58 AM,75.0,69.3,82,29.75,10.0,SE,10.4,-,N/A,,Clear,130,2013-05-16 07:58:00
3:58 AM,74.1,70.3,88,29.74,10.0,SE,12.7,-,N/A,,Clear,140,2013-05-16 08:58:00
4:58 AM,73.2,70.9,92,29.74,10.0,SE,11.5,-,N/A,,Clear,140,2013-05-16 09:58:00
5:03 AM,73.4,69.8,88,29.77,7.0,SE,11.5,-,N/A,,Clear,130,2013-05-16 10:03:00
5:08 AM,73.4,71.6,94,29.77,7.0,SE,11.5,-,N/A,,Clear,130,2013-05-16 10:08:00
5:38 AM,73.4,71.6,94,29.77,9.0,SE,10.4,-,N/A,,Mostly Cloudy,140,2013-05-16 10:38:00
5:48 AM,73.4,71.6,94,29.78,9.0,SE,10.4,-,N/A,,Mostly Cloudy,130,2013-05-16 10:48:00
5:58 AM,72.9,71.1,94,29.73,10.0,SE,11.5,-,N/A,,Overcast,130,2013-05-16 10:58:00
6:58 AM,73.0,70.7,92,29.74,9.0,SE,12.7,-,N/A,,Overcast,130,2013-05-16 11:58:00
7:58 AM,73.2,70.3,91,29.75,9.0,SE,12.7,-,N/A,,Overcast,140,2013-05-16 12:58:00
8:54 AM,73.4,69.8,88,29.80,9.0,SE,10.4,-,N/A,,Overcast,140,2013-05-16 13:54:00
9:54 AM,77.0,69.8,78,29.82,10.0,SE,10.4,-,N/A,,Overcast,140,2013-05-16 14:54:00
10:07 AM,77.0,69.8,78,29.82,10.0,SSE,9.2,-,N/A,,Mostly Cloudy,150,2013-05-16 15:07:00
10:12 AM,77.0,69.8,78,29.82,10.0,SSE,10.4,-,N/A,,Scattered Clouds,150,2013-05-16 15:12:00
10:54 AM,80.6,69.8,70,29.82,10.0,ESE,8.1,-,N/A,,Clear,120,2013-05-16 15:54:00
11:54 AM,84.2,68.0,58,29.82,10.0,Variable,6.9,-,N/A,,Clear,0,2013-05-16 16:54:00
12:54 PM,89.6,68.0,49,29.80,10.0,East,5.8,-,N/A,,Partly Cloudy,100,2013-05-16 17:54:00
1:54 PM,93.2,60.8,34,29.77,10.0,Calm,Calm,-,N/A,,Partly Cloudy,360,2013-05-16 18:54:00
2:54 PM,96.8,57.2,27,29.75,10.0,Variable,2.3,-,N/A,,Clear,0,2013-05-16 19:54:00
3:54 PM,100.4,53.6,21,29.72,10.0,ESE,4.6,-,N/A,,Clear,120,2013-05-16 20:54:00
4:58 PM,101.5,49.3,17,29.65,10.0,Variable,4.6,-,N/A,,Clear,0,2013-05-16 21:58:00
5:58 PM,102.9,45.9,14,29.62,10.0,Variable,1.2,-,N/A,,Clear,0,2013-05-16 22:58:00
6:58 PM,102.7,47.5,15,29.61,10.0,SE,6.9,-,N/A,,Clear,140,2013-05-16 23:58:00
7:58 PM,99.0,50.5,19,29.62,10.0,SSE,9.2,-,N/A,,Clear,160,2013-05-17 00:58:00
8:58 PM,91.6,54.0,28,29.68,10.0,SSE,6.9,-,N/A,,Clear,160,2013-05-17 01:58:00
9:58 PM,87.1,55.6,34,29.70,10.0,SSE,8.1,-,N/A,,Clear,160,2013-05-17 02:58:00
10:58 PM,84.0,56.3,39,29.72,10.0,ESE,4.6,-,N/A,,Clear,120,2013-05-17 03:58:00
11:58 PM,81.9,59.2,46,29.74,10.0,East,9.2,-,N/A,,Clear,80,2013-05-17 04:58:00